DYE454 LEBL-LIMC

Flight info

Callsign DYE454
Flight time 1h 47m
Altitude 30000
Route AGENA DCT BODEQ DCT LUMAS DCT UNANA DCT STP DCT RAPED DCT PIGOS DCT EKSID DCT NOSTA DCT EGHIN DCT ANAKI/N0334F180 P860 DEVOX
Aircraft A20N/M-SDE2E3FGHIRWXY/LB1

Departure

Time 2026-05-05 19:36
Airport Josep Tarradellas Barcelona-El Prat Airport (LEBL)

Arrival

Time 2026-05-05 21:23
Airport Milan Malpensa International Airport (LIMC)
Time Latitude Longitude Altitude Speed Heading
2026-05-05 18:59 41.28941 2.07782 19 ft 0 kts 335°
2026-05-05 19:23 41.28935 2.07786 18 ft 1 kts 335°
2026-05-05 19:24 41.28928 2.07790 18 ft 1 kts 335°
2026-05-05 19:24 41.28921 2.07794 19 ft 1 kts 335°
2026-05-05 19:24 41.28913 2.07799 18 ft 1 kts 338°
2026-05-05 19:24 41.28906 2.07802 18 ft 1 kts 348°
2026-05-05 19:25 41.28898 2.07804 20 ft 1 kts 359°
2026-05-05 19:25 41.28891 2.07804 19 ft 1 kts
2026-05-05 19:25 41.28883 2.07802 19 ft 1 kts 19°
2026-05-05 19:25 41.28876 2.07799 20 ft 1 kts 31°
2026-05-05 19:26 41.28870 2.07794 20 ft 0 kts 44°
2026-05-05 19:29 41.28873 2.07804 19 ft 5 kts 65°
2026-05-05 19:29 41.28905 2.07937 18 ft 19 kts 72°
2026-05-05 19:30 41.28941 2.08072 18 ft 16 kts 70°
2026-05-05 19:30 41.28951 2.08107 19 ft 2 kts 70°
2026-05-05 19:30 41.28946 2.08124 18 ft 4 kts 120°
2026-05-05 19:30 41.28910 2.08155 18 ft 8 kts 158°
2026-05-05 19:31 41.28844 2.08189 20 ft 11 kts 160°
2026-05-05 19:31 41.28760 2.08225 19 ft 14 kts 161°
2026-05-05 19:31 41.28722 2.08323 18 ft 13 kts 73°
2026-05-05 19:31 41.28764 2.08437 18 ft 15 kts 64°
2026-05-05 19:32 41.28811 2.08571 17 ft 17 kts 67°
2026-05-05 19:32 41.28861 2.08724 20 ft 19 kts 65°
2026-05-05 19:32 41.28920 2.08891 17 ft 21 kts 65°
2026-05-05 19:32 41.28979 2.09057 19 ft 13 kts 64°
2026-05-05 19:33 41.29017 2.09176 18 ft 15 kts 67°
2026-05-05 19:33 41.29060 2.09313 18 ft 17 kts 67°
2026-05-05 19:33 41.29114 2.09462 18 ft 19 kts 66°
2026-05-05 19:33 41.29169 2.09628 18 ft 20 kts 66°
2026-05-05 19:34 41.29231 2.09805 17 ft 22 kts 64°
2026-05-05 19:34 41.29306 2.09989 17 ft 23 kts 61°
2026-05-05 19:34 41.29297 2.10194 16 ft 24 kts 109°
2026-05-05 19:35 41.29198 2.10267 14 ft 0 kts 236°
2026-05-05 19:35 41.29194 2.10258 13 ft 2 kts 243°
2026-05-05 19:35 41.29129 2.10061 16 ft 58 kts 247°
2026-05-05 19:35 41.28872 2.09302 14 ft 121 kts 245°
2026-05-05 19:36 41.28444 2.08105 182 ft 151 kts 244°
2026-05-05 19:36 41.27918 2.07030 960 ft 132 kts 220°
2026-05-05 19:36 41.27072 2.06525 1493 ft 141 kts 192°
2026-05-05 19:36 41.26058 2.06548 1907 ft 151 kts 178°
2026-05-05 19:37 41.24933 2.06619 2272 ft 169 kts 187°
2026-05-05 19:37 41.23711 2.06466 2699 ft 187 kts 191°
2026-05-05 19:37 41.22341 2.06274 3159 ft 208 kts 181°
2026-05-05 19:37 41.20907 2.06893 3586 ft 232 kts 147°
2026-05-05 19:38 41.19807 2.08596 3984 ft 257 kts 115°
2026-05-05 19:38 41.19110 2.10853 4496 ft 276 kts 112°
2026-05-05 19:38 41.18409 2.13272 5296 ft 283 kts 111°
2026-05-05 19:38 41.17693 2.15735 6189 ft 287 kts 111°
2026-05-05 19:39 41.16979 2.18196 7031 ft 290 kts 112°
2026-05-05 19:39 41.16258 2.20721 7885 ft 294 kts 112°
2026-05-05 19:39 41.15533 2.23297 8745 ft 298 kts 112°
2026-05-05 19:39 41.15069 2.26003 9561 ft 306 kts 91°
2026-05-05 19:40 41.15457 2.28798 10237 ft 315 kts 69°
2026-05-05 19:40 41.16321 2.31552 10473 ft 339 kts 65°
2026-05-05 19:40 41.17356 2.34490 10735 ft 360 kts 64°
2026-05-05 19:40 41.18435 2.37552 11401 ft 367 kts 65°
2026-05-05 19:41 41.19502 2.40655 12154 ft 372 kts 66°
2026-05-05 19:41 41.20553 2.43781 12872 ft 376 kts 67°
2026-05-05 19:41 41.21613 2.46979 13608 ft 381 kts 68°
2026-05-05 19:41 41.22683 2.50237 14241 ft 386 kts 68°
2026-05-05 19:42 41.23765 2.53546 14846 ft 392 kts 68°
2026-05-05 19:42 41.24850 2.56864 15453 ft 397 kts 68°
2026-05-05 19:42 41.25959 2.60255 16060 ft 403 kts 68°
2026-05-05 19:42 41.27086 2.63703 16656 ft 408 kts 68°
2026-05-05 19:43 41.28221 2.67179 17237 ft 413 kts 68°
2026-05-05 19:43 41.29379 2.70726 17715 ft 421 kts 68°
2026-05-05 19:43 41.30549 2.74318 18315 ft 425 kts 68°
2026-05-05 19:43 41.31731 2.77951 18831 ft 429 kts 68°
2026-05-05 19:44 41.32919 2.81605 19440 ft 431 kts 69°
2026-05-05 19:44 41.34117 2.85296 19897 ft 438 kts 69°
2026-05-05 19:44 41.35318 2.89001 20388 ft 442 kts 69°
2026-05-05 19:44 41.36546 2.92797 20869 ft 447 kts 69°
2026-05-05 19:45 41.37787 2.96634 21345 ft 452 kts 69°
2026-05-05 19:45 41.39036 3.00502 21819 ft 457 kts 69°
2026-05-05 19:45 41.40298 3.04417 22281 ft 462 kts 69°
2026-05-05 19:45 41.41555 3.08328 22657 ft 468 kts 69°
2026-05-05 19:46 41.42849 3.12360 23130 ft 473 kts 69°
2026-05-05 19:46 41.44155 3.16431 23572 ft 477 kts 69°
2026-05-05 19:46 41.45448 3.20465 23979 ft 480 kts 69°
2026-05-05 19:46 41.46764 3.24575 24409 ft 483 kts 69°
2026-05-05 19:47 41.48083 3.28703 24816 ft 486 kts 69°
2026-05-05 19:47 41.49413 3.32872 25213 ft 489 kts 69°
2026-05-05 19:47 41.50298 3.35649 25470 ft 491 kts 69°
2026-05-05 19:47 41.51639 3.39861 25899 ft 494 kts 69°
2026-05-05 19:48 41.52984 3.44096 26306 ft 496 kts 69°
2026-05-05 19:48 41.54266 3.48390 26643 ft 498 kts 75°
2026-05-05 19:48 41.55392 3.54320 27092 ft 499 kts 82°
2026-05-05 19:48 41.55890 3.57392 27325 ft 501 kts 82°
2026-05-05 19:49 41.56632 3.61906 27657 ft 504 kts 82°
2026-05-05 19:49 41.57388 3.66494 27976 ft 507 kts 82°
2026-05-05 19:49 41.58146 3.71108 28298 ft 510 kts 82°
2026-05-05 19:49 41.58904 3.75742 28608 ft 513 kts 82°
2026-05-05 19:50 41.59665 3.80414 28905 ft 516 kts 82°
2026-05-05 19:50 41.60426 3.85102 29269 ft 516 kts 82°
2026-05-05 19:50 41.61187 3.89800 29536 ft 519 kts 82°
2026-05-05 19:50 41.61949 3.94527 29788 ft 522 kts 82°
2026-05-05 19:51 41.62714 3.99269 29876 ft 522 kts 82°
2026-05-05 19:51 41.64240 4.08773 29877 ft 522 kts 82°
2026-05-05 19:52 41.65756 4.18280 29879 ft 522 kts 82°
2026-05-05 19:52 41.67255 4.27730 29867 ft 522 kts 82°
2026-05-05 19:53 41.68763 4.37288 29877 ft 522 kts 82°
2026-05-05 19:53 41.70251 4.46782 29868 ft 522 kts 82°
2026-05-05 19:54 41.71732 4.56282 29874 ft 522 kts 82°
2026-05-05 19:54 41.73685 4.65681 29868 ft 530 kts 67°
2026-05-05 19:54 41.75508 4.69982 29870 ft 532 kts 55°
2026-05-05 19:55 41.77886 4.73775 29886 ft 532 kts 43°
2026-05-05 19:55 41.83350 4.80359 29879 ft 531 kts 40°
2026-05-05 19:56 41.88787 4.87113 29920 ft 531 kts 42°
2026-05-05 19:56 41.94079 4.94058 29878 ft 531 kts 43°
2026-05-05 19:57 41.99340 5.01063 29882 ft 533 kts 43°
2026-05-05 19:57 42.04595 5.08076 29881 ft 532 kts 43°
2026-05-05 19:58 42.09841 5.15091 29886 ft 532 kts 43°
2026-05-05 19:58 42.15053 5.22075 29886 ft 532 kts 43°
2026-05-05 19:59 42.20296 5.29117 29882 ft 532 kts 43°
2026-05-05 19:59 42.25536 5.36172 29889 ft 533 kts 44°
2026-05-05 20:00 42.30790 5.43266 29882 ft 534 kts 44°
2026-05-05 20:00 42.36039 5.50371 29886 ft 534 kts 44°
2026-05-05 20:01 42.41287 5.57491 29885 ft 534 kts 44°
2026-05-05 20:01 42.46527 5.64618 29890 ft 534 kts 44°
2026-05-05 20:02 42.51731 5.71712 29839 ft 532 kts 44°
2026-05-05 20:02 42.56940 5.78834 29892 ft 532 kts 44°
2026-05-05 20:03 42.62135 5.85954 29892 ft 532 kts 44°
2026-05-05 20:03 42.67345 5.93112 29894 ft 532 kts 44°
2026-05-05 20:04 42.72565 6.00302 29903 ft 532 kts 44°
2026-05-05 20:04 42.77743 6.07453 29905 ft 532 kts 44°
2026-05-05 20:05 42.82919 6.14617 29909 ft 531 kts 45°
2026-05-05 20:05 42.88349 6.21467 29908 ft 529 kts 38°
2026-05-05 20:06 42.93998 6.27914 29936 ft 530 kts 38°
2026-05-05 20:06 42.99608 6.34343 29934 ft 530 kts 39°
2026-05-05 20:07 43.05247 6.40835 29948 ft 529 kts 39°
2026-05-05 20:07 43.10893 6.47353 29890 ft 530 kts 38°
2026-05-05 20:08 43.16543 6.53893 29930 ft 531 kts 39°
2026-05-05 20:08 43.21989 6.60625 29924 ft 532 kts 48°
2026-05-05 20:09 43.26460 6.68717 29917 ft 533 kts 55°
2026-05-05 20:09 43.30812 6.76940 29925 ft 532 kts 55°
2026-05-05 20:10 43.35159 6.85178 29901 ft 532 kts 55°
2026-05-05 20:10 43.39478 6.93401 29935 ft 532 kts 55°
2026-05-05 20:11 43.43816 7.01684 29943 ft 532 kts 55°
2026-05-05 20:11 43.48089 7.09864 29931 ft 532 kts 55°
2026-05-05 20:12 43.52405 7.18150 29927 ft 532 kts 55°
2026-05-05 20:12 43.56722 7.26463 29929 ft 532 kts 55°
2026-05-05 20:13 43.60996 7.34715 29949 ft 531 kts 56°
2026-05-05 20:13 43.65281 7.43011 29936 ft 530 kts 56°
2026-05-05 20:14 43.69537 7.51277 29931 ft 530 kts 56°
2026-05-05 20:14 43.73795 7.59568 29891 ft 530 kts 55°
2026-05-05 20:15 43.78062 7.67904 29925 ft 530 kts 56°
2026-05-05 20:15 43.81803 7.76632 29932 ft 528 kts 63°
2026-05-05 20:16 43.85408 7.85551 29955 ft 527 kts 63°
2026-05-05 20:16 43.88987 7.94409 29961 ft 528 kts 63°
2026-05-05 20:17 43.92561 8.03279 29966 ft 527 kts 62°
2026-05-05 20:17 43.96123 8.12132 29976 ft 525 kts 62°
2026-05-05 20:18 43.99684 8.21023 29965 ft 526 kts 62°
2026-05-05 20:18 44.03209 8.29846 29962 ft 525 kts 62°
2026-05-05 20:19 44.06754 8.38748 29955 ft 525 kts 62°
2026-05-05 20:19 44.10290 8.47654 29947 ft 525 kts 62°
2026-05-05 20:20 44.13825 8.56584 29944 ft 526 kts 63°
2026-05-05 20:20 44.17416 8.65400 29881 ft 525 kts 56°
2026-05-05 20:20 44.19732 8.69342 29450 ft 522 kts 44°
2026-05-05 20:21 44.22456 8.72579 28737 ft 518 kts 32°
2026-05-05 20:21 44.25570 8.75079 27964 ft 511 kts 20°
2026-05-05 20:21 44.28895 8.76639 27557 ft 493 kts
2026-05-05 20:21 44.32196 8.77204 27378 ft 468 kts 353°
2026-05-05 20:22 44.35356 8.76785 27215 ft 440 kts 339°
2026-05-05 20:22 44.38203 8.75641 27067 ft 421 kts 335°
2026-05-05 20:22 44.41005 8.74613 26927 ft 413 kts 340°
2026-05-05 20:22 44.43800 8.74028 26713 ft 406 kts 347°
2026-05-05 20:23 44.46628 8.73797 26136 ft 407 kts 352°
2026-05-05 20:23 44.49453 8.73791 25736 ft 405 kts 354°
2026-05-05 20:23 44.52264 8.73888 25304 ft 403 kts 355°
2026-05-05 20:23 44.55059 8.74020 24894 ft 401 kts 356°
2026-05-05 20:24 44.57842 8.74156 24443 ft 398 kts 356°
2026-05-05 20:24 44.60619 8.74285 24042 ft 395 kts 356°
2026-05-05 20:24 44.63355 8.74409 23643 ft 393 kts 356°
2026-05-05 20:24 44.66050 8.74528 23201 ft 390 kts 356°
2026-05-05 20:25 44.68762 8.74579 22764 ft 385 kts 354°
2026-05-05 20:25 44.71391 8.74480 22338 ft 380 kts 351°
2026-05-05 20:25 44.73994 8.73978 21933 ft 372 kts 342°
2026-05-05 20:25 44.76537 8.73375 21512 ft 375 kts 354°
2026-05-05 20:26 44.79143 8.73865 21104 ft 380 kts 15°
2026-05-05 20:26 44.81505 8.75578 20703 ft 382 kts 38°
2026-05-05 20:26 44.83302 8.78265 20282 ft 379 kts 59°
2026-05-05 20:26 44.84343 8.81585 19891 ft 370 kts 81°
2026-05-05 20:27 44.84507 8.85131 19495 ft 356 kts 103°
2026-05-05 20:27 44.83785 8.88402 19116 ft 342 kts 126°
2026-05-05 20:27 44.82355 8.90890 18743 ft 325 kts 148°
2026-05-05 20:27 44.80413 8.92352 18372 ft 310 kts 171°
2026-05-05 20:28 44.78306 8.92556 17950 ft 298 kts 192°
2026-05-05 20:28 44.76266 8.92107 17535 ft 297 kts 193°
2026-05-05 20:28 44.74241 8.91496 17112 ft 295 kts 198°
2026-05-05 20:28 44.72329 8.90590 16696 ft 291 kts 205°
2026-05-05 20:29 44.70515 8.89307 16286 ft 289 kts 213°
2026-05-05 20:29 44.68902 8.87649 15879 ft 287 kts 223°
2026-05-05 20:29 44.67515 8.85664 15484 ft 287 kts 229°
2026-05-05 20:29 44.66213 8.83544 15192 ft 282 kts 230°
2026-05-05 20:30 44.64913 8.81498 15092 ft 282 kts 224°
2026-05-05 20:30 44.63316 8.79852 15002 ft 285 kts 210°
2026-05-05 20:30 44.61500 8.78790 14969 ft 286 kts 205°
2026-05-05 20:30 44.59858 8.77250 14947 ft 284 kts 229°
2026-05-05 20:31 44.58898 8.74901 14958 ft 284 kts 252°
2026-05-05 20:31 44.58782 8.72118 14954 ft 291 kts 277°
2026-05-05 20:31 44.59558 8.69473 14971 ft 305 kts 301°
2026-05-05 20:31 44.61140 8.67401 14952 ft 317 kts 325°
2026-05-05 20:32 44.63249 8.66372 14960 ft 328 kts 349°
2026-05-05 20:32 44.64776 8.66372 14962 ft 334 kts
2026-05-05 20:32 44.67640 8.68028 14959 ft 341 kts 37°
2026-05-05 20:32 44.69365 8.70331 14964 ft 341 kts 46°
2026-05-05 20:33 44.71012 8.72695 14958 ft 341 kts 52°
2026-05-05 20:33 44.71851 8.74571 14961 ft 340 kts 68°
2026-05-05 20:33 44.72401 8.77776 14953 ft 336 kts 92°
2026-05-05 20:33 44.72032 8.80981 14958 ft 327 kts 117°
2026-05-05 20:34 44.70859 8.83588 14963 ft 316 kts 141°
2026-05-05 20:34 44.69062 8.85277 14959 ft 304 kts 165°
2026-05-05 20:34 44.67045 8.85722 14949 ft 294 kts 189°
2026-05-05 20:34 44.65117 8.84905 14956 ft 287 kts 213°
2026-05-05 20:35 44.63443 8.83382 14957 ft 284 kts 214°
2026-05-05 20:35 44.61706 8.82078 14959 ft 286 kts 206°
2026-05-05 20:35 44.59834 8.81173 14963 ft 287 kts 202°
2026-05-05 20:35 44.58145 8.79734 14974 ft 285 kts 227°
2026-05-05 20:36 44.57105 8.77400 14968 ft 283 kts 251°
2026-05-05 20:36 44.56923 8.74667 14947 ft 290 kts 275°
2026-05-05 20:36 44.57648 8.71972 14966 ft 302 kts 299°
2026-05-05 20:36 44.59172 8.69891 14960 ft 316 kts 324°
2026-05-05 20:37 44.61231 8.68759 14957 ft 326 kts 342°
2026-05-05 20:37 44.63482 8.68187 14953 ft 326 kts 347°
2026-05-05 20:37 44.65715 8.67750 14959 ft 328 kts 347°
2026-05-05 20:37 44.67992 8.67273 14965 ft 327 kts 347°
2026-05-05 20:38 44.70218 8.66751 14956 ft 327 kts 346°
2026-05-05 20:38 44.72464 8.66183 14959 ft 326 kts 345°
2026-05-05 20:38 44.74681 8.65599 14951 ft 326 kts 345°
2026-05-05 20:38 44.76928 8.64996 14770 ft 328 kts 345°
2026-05-05 20:39 44.79165 8.64395 14526 ft 323 kts 345°
2026-05-05 20:39 44.81318 8.63817 14292 ft 321 kts 345°
2026-05-05 20:39 44.83549 8.63216 14050 ft 320 kts 345°
2026-05-05 20:39 44.85711 8.62634 13817 ft 318 kts 345°
2026-05-05 20:40 44.87895 8.62045 13562 ft 316 kts 345°
2026-05-05 20:40 44.90031 8.61469 13298 ft 314 kts 345°
2026-05-05 20:40 44.92196 8.60885 13030 ft 313 kts 346°
2026-05-05 20:40 44.94315 8.60314 12770 ft 312 kts 346°
2026-05-05 20:41 44.96462 8.59735 12503 ft 311 kts 346°
2026-05-05 20:41 44.98574 8.59165 12259 ft 310 kts 346°
2026-05-05 20:41 45.00697 8.58593 12003 ft 308 kts 346°
2026-05-05 20:41 45.02781 8.58030 11749 ft 307 kts 346°
2026-05-05 20:42 45.04859 8.57468 11501 ft 306 kts 346°
2026-05-05 20:42 45.06961 8.56900 11250 ft 305 kts 346°
2026-05-05 20:42 45.09044 8.56337 11052 ft 303 kts 346°
2026-05-05 20:42 45.11109 8.55778 10976 ft 303 kts 346°
2026-05-05 20:43 45.13197 8.55212 10963 ft 304 kts 346°
2026-05-05 20:43 45.15256 8.54655 10980 ft 304 kts 346°
2026-05-05 20:43 45.17344 8.54089 10982 ft 304 kts 346°
2026-05-05 20:43 45.19407 8.53530 10984 ft 304 kts 346°
2026-05-05 20:44 45.21493 8.52964 10985 ft 304 kts 346°
2026-05-05 20:44 45.23489 8.52062 10987 ft 299 kts 327°
2026-05-05 20:44 45.24974 8.50200 11000 ft 279 kts 301°
2026-05-05 20:44 45.25674 8.47783 10986 ft 258 kts 275°
2026-05-05 20:45 45.25079 8.42845 10962 ft 257 kts 240°
2026-05-05 20:45 45.23997 8.40843 10963 ft 256 kts 222°
2026-05-05 20:45 45.22512 8.39465 10964 ft 257 kts 203°
2026-05-05 20:46 45.20772 8.38891 10966 ft 260 kts 184°
2026-05-05 20:46 45.18965 8.39158 10969 ft 263 kts 172°
2026-05-05 20:46 45.17168 8.39608 10966 ft 262 kts 172°
2026-05-05 20:46 45.15370 8.40046 10966 ft 262 kts 173°
2026-05-05 20:47 45.13572 8.40476 10964 ft 262 kts 173°
2026-05-05 20:47 45.11772 8.40904 10968 ft 262 kts 173°
2026-05-05 20:47 45.10017 8.41640 10950 ft 266 kts 156°
2026-05-05 20:47 45.08502 8.43194 10735 ft 272 kts 135°
2026-05-05 20:48 45.07506 8.45434 10498 ft 273 kts 112°
2026-05-05 20:48 45.07170 8.48087 10248 ft 277 kts 90°
2026-05-05 20:48 45.07570 8.50769 10008 ft 279 kts 67°
2026-05-05 20:48 45.08640 8.53014 9765 ft 280 kts 44°
2026-05-05 20:49 45.10251 8.54550 9500 ft 278 kts 20°
2026-05-05 20:49 45.12132 8.55108 9230 ft 275 kts 358°
2026-05-05 20:49 45.13992 8.54775 9045 ft 271 kts 347°
2026-05-05 20:49 45.15858 8.54303 8977 ft 271 kts 348°
2026-05-05 20:50 45.17724 8.53843 8979 ft 272 kts 348°
2026-05-05 20:50 45.19599 8.53390 8983 ft 273 kts 348°
2026-05-05 20:50 45.21476 8.52931 8985 ft 272 kts 345°
2026-05-05 20:50 45.23151 8.51850 8981 ft 267 kts 318°
2026-05-05 20:51 45.24302 8.49825 8816 ft 263 kts 291°
2026-05-05 20:51 45.24663 8.47348 8557 ft 254 kts 264°
2026-05-05 20:51 45.24225 8.44940 8291 ft 251 kts 240°
2026-05-05 20:51 45.23132 8.43075 8065 ft 248 kts 215°
2026-05-05 20:52 45.21580 8.42040 7981 ft 249 kts 192°
2026-05-05 20:52 45.19845 8.42023 7968 ft 251 kts 171°
2026-05-05 20:52 45.18117 8.42452 7965 ft 251 kts 171°
2026-05-05 20:52 45.16403 8.42872 7966 ft 251 kts 171°
2026-05-05 20:53 45.14697 8.43283 7965 ft 251 kts 172°
2026-05-05 20:53 45.12970 8.43694 7964 ft 251 kts 172°
2026-05-05 20:53 45.11307 8.44447 7974 ft 253 kts 151°
2026-05-05 20:53 45.09991 8.46140 7965 ft 258 kts 125°
2026-05-05 20:54 45.09341 8.48476 7970 ft 263 kts 99°
2026-05-05 20:54 45.09503 8.51057 7967 ft 268 kts 71°
2026-05-05 20:54 45.10495 8.53288 7968 ft 270 kts 43°
2026-05-05 20:54 45.12110 8.54637 7961 ft 271 kts 14°
2026-05-05 20:55 45.13951 8.54795 7967 ft 269 kts 349°
2026-05-05 20:55 45.15802 8.54342 7977 ft 269 kts 348°
2026-05-05 20:55 45.17649 8.53876 7986 ft 268 kts 348°
2026-05-05 20:55 45.19489 8.53420 7984 ft 268 kts 348°
2026-05-05 20:56 45.21335 8.52969 7983 ft 268 kts 347°
2026-05-05 20:56 45.23008 8.51974 7987 ft 264 kts 320°
2026-05-05 20:56 45.24165 8.50008 7996 ft 259 kts 292°
2026-05-05 20:56 45.24543 8.47552 7987 ft 254 kts 265°
2026-05-05 20:57 45.24117 8.45176 7984 ft 250 kts 239°
2026-05-05 20:57 45.22999 8.43314 7967 ft 249 kts 214°
2026-05-05 20:57 45.21424 8.42341 7965 ft 249 kts 189°
2026-05-05 20:57 45.19692 8.42416 7970 ft 251 kts 171°
2026-05-05 20:58 45.17964 8.42850 7964 ft 251 kts 171°
2026-05-05 20:58 45.16242 8.43277 7965 ft 251 kts 171°
2026-05-05 20:58 45.14515 8.43696 7963 ft 251 kts 171°
2026-05-05 20:58 45.12787 8.44112 7972 ft 251 kts 170°
2026-05-05 20:59 45.11192 8.45030 7975 ft 254 kts 146°
2026-05-05 20:59 45.10007 8.46903 7965 ft 259 kts 119°
2026-05-05 20:59 45.09557 8.49381 7970 ft 265 kts 91°
2026-05-05 20:59 45.09987 8.51927 7968 ft 269 kts 62°
2026-05-05 21:00 45.11201 8.53879 7971 ft 271 kts 33°
2026-05-05 21:00 45.12950 8.54819 7962 ft 270 kts
2026-05-05 21:00 45.14814 8.54607 7976 ft 270 kts 349°
2026-05-05 21:00 45.16674 8.54742 7982 ft 270 kts 17°
2026-05-05 21:01 45.18429 8.55716 7988 ft 271 kts 22°
2026-05-05 21:01 45.20132 8.56800 7981 ft 271 kts 28°
2026-05-05 21:01 45.21542 8.58511 7990 ft 269 kts 56°
2026-05-05 21:01 45.22243 8.60947 7951 ft 264 kts 84°
2026-05-05 21:02 45.22094 8.63463 7689 ft 258 kts 112°
2026-05-05 21:02 45.21302 8.65737 7376 ft 255 kts 123°
2026-05-05 21:02 45.20312 8.67789 7051 ft 251 kts 130°
2026-05-05 21:02 45.19514 8.69970 6887 ft 256 kts 103°
2026-05-05 21:03 45.19558 8.72520 6746 ft 261 kts 74°
2026-05-05 21:03 45.20449 8.74718 6629 ft 263 kts 45°
2026-05-05 21:03 45.22003 8.76078 6529 ft 263 kts 15°
2026-05-05 21:03 45.23815 8.76216 6414 ft 262 kts 346°
2026-05-05 21:04 45.25416 8.75137 6293 ft 259 kts 316°
2026-05-05 21:04 45.26441 8.73115 6178 ft 253 kts 288°
2026-05-05 21:04 45.26972 8.70711 6139 ft 252 kts 283°
2026-05-05 21:04 45.27470 8.68342 6141 ft 252 kts 285°
2026-05-05 21:05 45.28043 8.65975 6137 ft 252 kts 288°
2026-05-05 21:05 45.28673 8.63656 6141 ft 255 kts 289°
2026-05-05 21:05 45.29344 8.61346 6137 ft 253 kts 290°
2026-05-05 21:05 45.30034 8.59035 6140 ft 252 kts 291°
2026-05-05 21:06 45.30722 8.56750 6136 ft 254 kts 290°
2026-05-05 21:06 45.31520 8.54505 6133 ft 255 kts 307°
2026-05-05 21:06 45.32900 8.52957 6141 ft 259 kts 336°
2026-05-05 21:06 45.34653 8.52523 6139 ft 257 kts
2026-05-05 21:07 45.36340 8.53347 6137 ft 257 kts 35°
2026-05-05 21:07 45.37521 8.55199 6128 ft 257 kts 65°
2026-05-05 21:07 45.37926 8.57632 6136 ft 246 kts 96°
2026-05-05 21:07 45.37513 8.59934 6139 ft 240 kts 117°
2026-05-05 21:08 45.36713 8.61980 6138 ft 239 kts 127°
2026-05-05 21:08 45.35804 8.63936 6136 ft 240 kts 120°
2026-05-05 21:08 45.35267 8.66195 6137 ft 242 kts 111°
2026-05-05 21:08 45.34423 8.68208 6138 ft 237 kts 140°
2026-05-05 21:09 45.33007 8.69316 6137 ft 230 kts 170°
2026-05-05 21:09 45.31472 8.69505 6132 ft 214 kts 178°
2026-05-05 21:09 45.30028 8.69613 6141 ft 212 kts 178°
2026-05-05 21:09 45.28547 8.69727 6137 ft 212 kts 178°
2026-05-05 21:10 45.27077 8.69845 6139 ft 211 kts 178°
2026-05-05 21:10 45.25600 8.69967 6133 ft 211 kts 178°
2026-05-05 21:10 45.24130 8.70090 6139 ft 212 kts 177°
2026-05-05 21:10 45.22675 8.70211 6133 ft 211 kts 177°
2026-05-05 21:11 45.21199 8.70335 6132 ft 212 kts 178°
2026-05-05 21:11 45.19728 8.70458 6129 ft 212 kts 177°
2026-05-05 21:11 45.18259 8.70644 6108 ft 212 kts 170°
2026-05-05 21:11 45.16825 8.71053 6109 ft 212 kts 170°
2026-05-05 21:12 45.15375 8.71460 6110 ft 212 kts 170°
2026-05-05 21:12 45.14014 8.72237 6118 ft 215 kts 141°
2026-05-05 21:12 45.13158 8.73984 6111 ft 220 kts 108°
2026-05-05 21:12 45.12989 8.76155 6108 ft 223 kts 94°
2026-05-05 21:13 45.12953 8.78320 6110 ft 222 kts 93°
2026-05-05 21:13 45.13070 8.80508 6109 ft 225 kts 72°
2026-05-05 21:13 45.13938 8.82349 6116 ft 228 kts 43°
2026-05-05 21:13 45.15210 8.83659 6110 ft 229 kts 25°
2026-05-05 21:14 45.16716 8.84419 6112 ft 230 kts 14°
2026-05-05 21:14 45.18272 8.84968 6110 ft 229 kts 13°
2026-05-05 21:14 45.19825 8.85504 6111 ft 229 kts 13°
2026-05-05 21:14 45.21375 8.85885 6100 ft 228 kts 352°
2026-05-05 21:15 45.22882 8.85174 6110 ft 229 kts 332°
2026-05-05 21:15 45.23835 8.84548 6108 ft 227 kts 335°
2026-05-05 21:15 45.25829 8.83632 6043 ft 226 kts 345°
2026-05-05 21:15 45.26851 8.83310 5861 ft 226 kts 347°
2026-05-05 21:16 45.28407 8.82888 5548 ft 225 kts 348°
2026-05-05 21:16 45.29927 8.82475 5334 ft 222 kts 348°
2026-05-05 21:16 45.31469 8.82053 5219 ft 226 kts 348°
2026-05-05 21:16 45.33009 8.81631 5073 ft 221 kts 348°
2026-05-05 21:17 45.34478 8.81229 4982 ft 211 kts 348°
2026-05-05 21:17 45.35883 8.80843 4877 ft 199 kts 348°
2026-05-05 21:17 45.37202 8.80479 4724 ft 185 kts 348°
2026-05-05 21:17 45.38384 8.80157 4569 ft 163 kts 348°
2026-05-05 21:18 45.39516 8.79845 4492 ft 176 kts 348°
2026-05-05 21:18 45.40717 8.79515 4364 ft 176 kts 348°
2026-05-05 21:18 45.41922 8.79183 4235 ft 176 kts 348°
2026-05-05 21:18 45.43124 8.78853 4142 ft 175 kts 348°
2026-05-05 21:19 45.44300 8.78529 3988 ft 171 kts 349°
2026-05-05 21:19 45.45489 8.78201 3875 ft 176 kts 349°
2026-05-05 21:19 45.46670 8.77875 3683 ft 173 kts 349°
2026-05-05 21:19 45.47862 8.77547 3480 ft 174 kts 349°
2026-05-05 21:20 45.49040 8.77221 3265 ft 170 kts 349°
2026-05-05 21:20 45.50150 8.76915 3048 ft 161 kts 350°
2026-05-05 21:20 45.51257 8.76609 2833 ft 161 kts 350°
2026-05-05 21:20 45.52350 8.76308 2622 ft 161 kts 351°
2026-05-05 21:21 45.53451 8.76003 2407 ft 160 kts 350°
2026-05-05 21:21 45.54548 8.75700 2188 ft 159 kts 351°
2026-05-05 21:21 45.55636 8.75399 1973 ft 158 kts 351°
2026-05-05 21:21 45.56713 8.75101 1749 ft 157 kts 351°
2026-05-05 21:22 45.57771 8.74808 1531 ft 155 kts 350°
2026-05-05 21:22 45.58826 8.74516 1315 ft 152 kts 350°
2026-05-05 21:22 45.59859 8.74230 1104 ft 149 kts 349°
2026-05-05 21:22 45.60863 8.73951 909 ft 148 kts 349°
2026-05-05 21:23 45.61871 8.73671 731 ft 144 kts 349°
2026-05-05 21:23 45.62707 8.73443 729 ft 84 kts 348°
2026-05-05 21:23 45.63056 8.73319 732 ft 41 kts 336°
2026-05-05 21:23 45.63246 8.73104 739 ft 16 kts 306°
2026-05-05 21:24 45.63250 8.73095 739 ft 0 kts 306°
2026-05-05 21:25 45.63259 8.73077 737 ft 15 kts 304°
2026-05-05 21:25 45.63329 8.72929 740 ft 20 kts 304°
2026-05-05 21:25 45.63396 8.72751 743 ft 21 kts 289°
2026-05-05 21:25 45.63398 8.72538 744 ft 23 kts 259°
2026-05-05 21:26 45.63371 8.72335 744 ft 19 kts 258°
2026-05-05 21:26 45.63341 8.72130 746 ft 22 kts 256°
2026-05-05 21:26 45.63330 8.72061 744 ft 0 kts 258°
2026-05-05 21:26 45.63328 8.72047 745 ft 2 kts 258°
2026-05-05 21:27 45.63328 8.72046 745 ft 0 kts 258°
2026-05-05 21:28 45.63326 8.72009 748 ft 6 kts 278°
2026-05-05 21:28 45.63344 8.71967 746 ft 1 kts 317°
2026-05-05 21:28 45.63346 8.71965 746 ft 0 kts 315°
2026-05-05 21:29 45.63346 8.71958 747 ft 2 kts 280°
2026-05-05 21:29 45.63330 8.71937 744 ft 7 kts 176°
2026-05-05 21:29 45.63265 8.71973 744 ft 14 kts 165°
2026-05-05 21:29 45.63151 8.72000 743 ft 18 kts 170°
2026-05-05 21:30 45.63024 8.72039 741 ft 18 kts 168°
2026-05-05 21:30 45.62989 8.72050 740 ft 4 kts 168°
2026-05-05 21:30 45.62939 8.72064 739 ft 10 kts 168°
2026-05-05 21:30 45.62857 8.72087 738 ft 8 kts 169°
2026-05-05 21:31 45.62808 8.72101 738 ft 6 kts 169°
2026-05-05 21:31 45.62766 8.72111 737 ft 1 kts 172°
2026-05-05 21:32 45.62765 8.72111 737 ft 1 kts 172°
2026-05-05 21:32 45.62711 8.72126 734 ft 13 kts 169°
2026-05-05 21:32 45.62596 8.72156 733 ft 20 kts 168°
2026-05-05 21:32 45.62443 8.72196 730 ft 14 kts 171°
2026-05-05 21:33 45.62430 8.72199 730 ft 3 kts 171°
2026-05-05 21:33 45.62411 8.72198 730 ft 1 kts 181°
2026-05-05 21:33 45.62377 8.72204 730 ft 8 kts 172°
2026-05-05 21:33 45.62298 8.72233 729 ft 14 kts 167°
2026-05-05 21:34 45.62282 8.72238 728 ft 0 kts 166°
2026-05-05 21:34 45.62232 8.72226 726 ft 15 kts 202°
2026-05-05 21:34 45.62201 8.72146 726 ft 0 kts 263°
2026-05-05 21:34 45.62202 8.72144 726 ft 1 kts 283°
2026-05-05 21:35 45.62248 8.72141 727 ft 20 kts
2026-05-05 21:35 45.62305 8.72122 730 ft 12 kts 353°
2026-05-05 21:35 45.62391 8.72100 730 ft 12 kts 347°
2026-05-05 21:35 45.62456 8.72034 731 ft 12 kts 281°
2026-05-05 21:36 45.62457 8.72006 731 ft 0 kts 265°
2026-05-05 21:39 45.62456 8.72002 731 ft 2 kts 265°
2026-05-05 21:39 45.62453 8.71988 730 ft 0 kts 259°